This is the latest recevied weather packets stored in our database for station/object S50ME-11. If no packets are shown the sender has not sent any weather packets the latest 10 day(s).
| Time | Temp. | Humidity | Pressure | Rain* | Wind** | Luminosity | Snow |
|---|---|---|---|---|---|---|---|
| 1777848350 | 17.78° C | 40% | 1018 hPa | - | - | - | - |
| 1777847453 | 18.33° C | 39% | 1018.2 hPa | - | - | - | - |
| 1777847451 | 18.33° C | 39% | 1018.2 hPa | - | - | - | - |
| 1777846553 | 18.33° C | 39% | 1018 hPa | - | - | - | - |
| 1777846549 | 18.33° C | 39% | 1018 hPa | - | - | - | - |
| 1777845652 | 18.89° C | 39% | 1017.9 hPa | - | - | - | - |
| 1777845649 | 18.89° C | 39% | 1017.9 hPa | - | - | - | - |
| 1777844751 | 18.89° C | 39% | 1019.3 hPa | - | - | - | - |
| 1777844748 | 18.89° C | 39% | 1019.3 hPa | - | - | - | - |
| 1777843851 | 19.44° C | 38% | 1018.8 hPa | - | - | - | - |
| 1777843848 | 19.44° C | 38% | 1018.8 hPa | - | - | - | - |
| 1777842951 | 19.44° C | 39% | 1018.8 hPa | - | - | - | - |
| 1777842948 | 19.44° C | 39% | 1018.8 hPa | - | - | - | - |
| 1777842050 | 19.44° C | 38% | 1018.9 hPa | - | - | - | - |
| 1777842047 | 19.44° C | 38% | 1018.9 hPa | - | - | - | - |
| 1777841150 | 20° C | 38% | 1018.2 hPa | - | - | - | - |
| 1777841147 | 20° C | 38% | 1018.2 hPa | - | - | - | - |
| 1777840250 | 20° C | 38% | 1018.3 hPa | - | - | - | - |
| 1777840246 | 20° C | 38% | 1018.3 hPa | - | - | - | - |
| 1777839349 | 20.56° C | 38% | 1019.2 hPa | - | - | - | - |
| 1777839346 | 20.56° C | 38% | 1019.2 hPa | - | - | - | - |
| 1777838516 | 20° C | 38% | 1018.8 hPa | - | - | - | - |
| 1777838449 | 20° C | 38% | 1018.8 hPa | - | - | - | - |
| 1777838446 | 20° C | 38% | 1018.8 hPa | - | - | - | - |
| 1777837549 | 20.56° C | 38% | 1018.7 hPa | - | - | - | - |
* Rain since midnight (hover to see other rain measurements)
** Current wind speed in m/s (hover to see current wind gust speed)